When you browse on this site, cookies collect data to enhance your experience and personalize the content and advertising you see.
Visit our Privacy Policy to learn more. By continuing to use the site, you agree to this use of cookies and data.

Hourly Weather Ouahigouya

Today, 26 September, Saturday

Time Temperature Precipitation Wind Pressure Humidity
00:00 +29°C° 0 mm 3 mps 729 mmHg 63%
01:00 +29°C° 0 mm 3 mps 729 mmHg 64%
02:00 +29°C° 0 mm 3 mps 729 mmHg 65%
03:00 +29°C° 0 mm 3 mps 728 mmHg 66%
04:00 +28°C° 0 mm 3 mps 728 mmHg 67%
05:00 +28°C° 0 mm 3 mps 729 mmHg 68%
06:00 +28°C° 0 mm 3 mps 729 mmHg 69%
07:00 +29°C° 0 mm 3 mps 729 mmHg 64%
08:00 +32°C° 0 mm 4 mps 730 mmHg 59%
09:00 +33°C° 0 mm 5 mps 730 mmHg 54%
10:00 +35°C° 0 mm 4 mps 730 mmHg 49%
11:00 +36°C° 0 mm 4 mps 729 mmHg 44%
12:00 +37°C° 0 mm 4 mps 729 mmHg 39%
13:00 +38°C° 0 mm 3 mps 728 mmHg 36%
14:00 +39°C° 0 mm 2 mps 728 mmHg 33%
15:00 +39°C° 0 mm 2 mps 727 mmHg 30%
16:00 +37°C° 0.2 mm 3 mps 727 mmHg 38%
17:00 +35°C° 0.2 mm 4 mps 727 mmHg 45%
18:00 +33°C° 0.2 mm 6 mps 727 mmHg 53%
19:00 +30°C° 2.8 mm 6 mps 727 mmHg 59%
20:00 +29°C° 2.8 mm 7 mps 727 mmHg 64%
21:00 +27°C° 2.8 mm 7 mps 728 mmHg 70%
22:00 +28°C° 0 mm 6 mps 728 mmHg 66%
23:00 +28°C° 0 mm 5 mps 728 mmHg 61%

Tomorrow, 27 September, Sunday

Time Temperature Precipitation Wind Pressure Humidity
00:00 +28°C° 0 mm 4 mps 728 mmHg 57%
01:00 +28°C° 0 mm 4 mps 728 mmHg 62%
02:00 +28°C° 0 mm 4 mps 727 mmHg 67%
03:00 +27°C° 0 mm 4 mps 727 mmHg 73%
04:00 +27°C° 0 mm 4 mps 727 mmHg 74%
05:00 +27°C° 0 mm 5 mps 727 mmHg 74%
06:00 +27°C° 0 mm 5 mps 727 mmHg 75%
07:00 +28°C° 0 mm 5 mps 728 mmHg 70%
08:00 +29°C° 0 mm 5 mps 728 mmHg 65%
09:00 +32°C° 0 mm 5 mps 728 mmHg 60%
10:00 +33°C° 0 mm 5 mps 728 mmHg 54%
11:00 +35°C° 0 mm 5 mps 728 mmHg 48%
12:00 +36°C° 0 mm 5 mps 728 mmHg 42%
13:00 +37°C° 0 mm 5 mps 727 mmHg 40%
14:00 +37°C° 0 mm 4 mps 727 mmHg 39%
15:00 +38°C° 0 mm 3 mps 726 mmHg 37%
16:00 +37°C° 0 mm 3 mps 726 mmHg 39%
17:00 +36°C° 0 mm 3 mps 726 mmHg 42%
18:00 +35°C° 0 mm 3 mps 726 mmHg 45%
19:00 +33°C° 0.6 mm 4 mps 727 mmHg 52%
20:00 +32°C° 0.6 mm 4 mps 728 mmHg 60%
21:00 +29°C° 0.6 mm 4 mps 728 mmHg 67%
22:00 +29°C° 0.4 mm 4 mps 729 mmHg 68%
23:00 +28°C° 0.4 mm 4 mps 729 mmHg 69%

Day after tomorrow, 28 September, Monday

Time Temperature Precipitation Wind Pressure Humidity
00:00 +28°C° 0.4 mm 4 mps 729 mmHg 70%
01:00 +28°C° 0.1 mm 3 mps 729 mmHg 70%
02:00 +28°C° 0.1 mm 3 mps 728 mmHg 70%
03:00 +27°C° 0.1 mm 3 mps 728 mmHg 70%
04:00 +27°C° 0 mm 3 mps 728 mmHg 68%
05:00 +27°C° 0 mm 2 mps 728 mmHg 66%
06:00 +27°C° 0 mm 2 mps 728 mmHg 65%
07:00 +29°C° 0 mm 2 mps 728 mmHg 59%
08:00 +30°C° 0 mm 3 mps 729 mmHg 54%
09:00 +32°C° 0 mm 4 mps 729 mmHg 49%
10:00 +34°C° 0 mm 3 mps 729 mmHg 45%
11:00 +35°C° 0 mm 2 mps 729 mmHg 40%
12:00 +37°C° 0 mm 2 mps 729 mmHg 35%
13:00 +37°C° 0 mm 1 mps 728 mmHg 33%
14:00 +37°C° 0 mm 1 mps 728 mmHg 31%
15:00 +39°C° 0 mm 1 mps 727 mmHg 28%
16:00 +37°C° 0 mm 1 mps 727 mmHg 30%
17:00 +37°C° 0 mm 2 mps 727 mmHg 32%
18:00 +36°C° 0 mm 2 mps 727 mmHg 35%
19:00 +36°C° 0 mm 2 mps 727 mmHg 37%
20:00 +35°C° 0 mm 2 mps 728 mmHg 39%
21:00 +33°C° 0 mm 1 mps 729 mmHg 41%
22:00 +33°C° 0 mm 1 mps 729 mmHg 43%
23:00 +32°C° 0 mm 1 mps 729 mmHg 45%

29 September, Tuesday

Time Temperature Precipitation Wind Pressure Humidity
00:00 +31°C° 0 mm 1 mps 729 mmHg 48%
01:00 +31°C° 0 mm 1 mps 728 mmHg 48%
02:00 +31°C° 0 mm 2 mps 728 mmHg 48%
03:00 +31°C° 0 mm 2 mps 728 mmHg 48%
04:00 +30°C° 0 mm 2 mps 728 mmHg 50%
05:00 +30°C° 0 mm 2 mps 728 mmHg 52%
06:00 +29°C° 0 mm 2 mps 728 mmHg 54%
07:00 +31°C° 0 mm 2 mps 729 mmHg 50%
08:00 +33°C° 0 mm 3 mps 729 mmHg 47%
09:00 +35°C° 0 mm 3 mps 730 mmHg 43%
10:00 +36°C° 0 mm 3 mps 729 mmHg 40%
11:00 +37°C° 0 mm 2 mps 729 mmHg 36%
12:00 +38°C° 0 mm 2 mps 729 mmHg 33%
13:00 +39°C° 0 mm 2 mps 728 mmHg 30%
14:00 +40°C° 0 mm 1 mps 727 mmHg 27%
15:00 +41°C° 0 mm 1 mps 727 mmHg 24%
16:00 +40°C° 0 mm 1 mps 727 mmHg 26%
17:00 +39°C° 0 mm 2 mps 727 mmHg 28%
18:00 +38°C° 0 mm 2 mps 726 mmHg 30%
19:00 +37°C° 0 mm 2 mps 727 mmHg 33%
20:00 +36°C° 0 mm 3 mps 727 mmHg 36%
21:00 +35°C° 0 mm 3 mps 728 mmHg 39%
22:00 +34°C° 0 mm 3 mps 728 mmHg 42%
23:00 +34°C° 0 mm 3 mps 728 mmHg 45%

30 September, Wednesday

Time Temperature Precipitation Wind Pressure Humidity
00:00 +33°C° 0 mm 3 mps 728 mmHg 48%
01:00 +32°C° 0 mm 4 mps 728 mmHg 53%
02:00 +30°C° 0 mm 4 mps 727 mmHg 58%
03:00 +30°C° 0 mm 5 mps 727 mmHg 63%
04:00 +29°C° 0 mm 5 mps 727 mmHg 66%
05:00 +29°C° 0 mm 5 mps 727 mmHg 70%
06:00 +28°C° 0 mm 5 mps 727 mmHg 73%
07:00 +29°C° 0 mm 6 mps 728 mmHg 69%
08:00 +30°C° 0 mm 6 mps 728 mmHg 64%
09:00 +32°C° 0 mm 7 mps 729 mmHg 60%
10:00 +34°C° 0 mm 7 mps 728 mmHg 55%
11:00 +35°C° 0 mm 6 mps 728 mmHg 49%
12:00 +38°C° 0 mm 6 mps 728 mmHg 44%
13:00 +37°C° 0 mm 5 mps 727 mmHg 41%
14:00 +38°C° 0 mm 4 mps 727 mmHg 39%
15:00 +39°C° 0 mm 3 mps 726 mmHg 36%
16:00 +38°C° 0 mm 3 mps 726 mmHg 38%
17:00 +37°C° 0 mm 3 mps 726 mmHg 41%
18:00 +36°C° 0 mm 3 mps 726 mmHg 43%
19:00 +35°C° 0 mm 4 mps 726 mmHg 47%
20:00 +34°C° 0 mm 5 mps 727 mmHg 51%
21:00 +33°C° 0 mm 5 mps 727 mmHg 55%
22:00 +32°C° 0 mm 6 mps 727 mmHg 61%
23:00 +32°C° 0 mm 6 mps 727 mmHg 67%

1 October, Thursday

Time Temperature Precipitation Wind Pressure Humidity
00:00 +30°C° 0 mm 7 mps 727 mmHg 73%
01:00 +29°C° 0 mm 6 mps 727 mmHg 74%
02:00 +29°C° 0 mm 6 mps 726 mmHg 75%
03:00 +28°C° 0 mm 6 mps 726 mmHg 76%
04:00 +28°C° 0 mm 5 mps 726 mmHg 76%
05:00 +28°C° 0 mm 5 mps 727 mmHg 77%
06:00 +28°C° 0 mm 5 mps 727 mmHg 77%
07:00 +29°C° 0 mm 5 mps 727 mmHg 72%
08:00 +30°C° 0 mm 6 mps 728 mmHg 67%
09:00 +33°C° 0 mm 6 mps 728 mmHg 62%
10:00 +34°C° 0 mm 6 mps 728 mmHg 56%
11:00 +36°C° 0 mm 5 mps 728 mmHg 50%
12:00 +37°C° 0 mm 5 mps 727 mmHg 44%
13:00 +39°C° 0 mm 5 mps 727 mmHg 43%
14:00 +39°C° 0 mm 5 mps 726 mmHg 41%
15:00 +39°C° 0 mm 5 mps 726 mmHg 40%
16:00 +37°C° 0 mm 5 mps 726 mmHg 45%
17:00 +35°C° 0 mm 5 mps 726 mmHg 50%
18:00 +34°C° 0 mm 5 mps 726 mmHg 55%
19:00 +33°C° 0 mm 5 mps 726 mmHg 58%
20:00 +32°C° 0 mm 5 mps 727 mmHg 62%
21:00 +30°C° 0 mm 4 mps 727 mmHg 65%
22:00 +30°C° 0 mm 4 mps 727 mmHg 66%
23:00 +29°C° 0 mm 4 mps 727 mmHg 68%
Show more